Flag for Paraguay Weather past 2 weeks in Ciudad del Este, Paraguay

Now
64 °F

Clear.


Feels Like: 64 °F
Forecast: 63 / 81 °F
Wind: 7 mph from Southeast

Location: Foz Do Iguacu Aeroporto

Current Time: Aug 1, 2015 at 2:21:07 AM

Latest Report: Aug 1, 2015 at 2:00 AM


Visibility: 10 mi

Pressure: 30.04 "Hg

Humidity: 94%

Dew point: 63 °F

Location of Ciudad del EsteLocation

Historic Weather in Ciudad del Este — Graph

°F

Ciudad del Este temperature yesterday

Maximum temperature yesterday: 84 °F (at 12:00 PM)
Minimum temperature yesterday: 61 °F (at 3:00 AM)
Average temperature yesterday: 72 °F

Past Weeks' High & Low Weather Summary

 TemperatureHumidityPressure
High84 °F (Jul 29, 2:00 PM)100% (Jul 17, 1:00 AM)30.24 "Hg (Jul 17, 1:00 AM)
Low32 °F (Jul 26, 2:00 AM)37% (Jul 29, 2:00 PM)29.89 "Hg (Jul 19, 3:00 PM)
Average63 °F83%30.08 "Hg
* Reported Jul 17 1:00 AM — Aug 1 1:00 AM, Ciudad del Este, Weather by CustomWeather, © 2015

Note: Actual official high and low records may vary slightly from our data, if they occured in-between our weather recording intervals... More about our weather records

Advertising

Ciudad del Este weather history for previous 24 hours

 ConditionsComfort  
Time TempWeatherWind HumidityBarometerVisibility
1:00 AM
Sat, Aug 1
66 °FClear.3 mph88%30.04 "Hg10 mi
12:00 AM72 °FClear.3 mph61%30.04 "Hg10 mi
11:00 PM
Fri, Jul 31
68 °FClear.5 mph78%30.04 "Hg10 mi
10:00 PM68 °FClear.3 mph83%30.04 "Hg10 mi
9:00 PM66 °FClear.2 mph88%30.04 "Hg10 mi
8:00 PM70 °FClear.5 mph73%30.01 "Hg10 mi
7:00 PM73 °FClear.5 mph61%30.01 "Hg10 mi
6:00 PM75 °FClear.7 mph54%30.01 "Hg10 mi
5:00 PM79 °FClear.7 mph48%29.98 "Hg10 mi
4:00 PM81 °FSunny.8 mph45%29.98 "Hg10 mi
3:00 PM82 °FSunny.9 mph45%29.98 "Hg10 mi
2:00 PM82 °FSunny.10 mph45%29.98 "Hg10 mi
1:00 PM82 °FSunny.13 mph42%29.98 "Hg10 mi
12:00 PM84 °FSunny.15 mph40%29.98 "Hg10 mi
11:00 AM82 °FSunny.13 mph42%30.01 "Hg10 mi
10:00 AM77 °FSunny.6 mph57%30.04 "Hg10 mi
9:00 AM72 °FSunny.5 mph65%30.04 "Hg10 mi
8:00 AM68 °FSunny.5 mph69%30.01 "Hg10 mi
7:00 AM64 °FSunny.10 mph78%29.98 "Hg10 mi
6:00 AM64 °FSunny.10 mph78%29.98 "Hg10 mi
5:00 AM63 °FClear.12 mph83%29.98 "Hg10 mi
4:00 AM63 °FClear.9 mph83%29.98 "Hg10 mi
3:00 AM61 °FClear.7 mph88%29.98 "Hg10 mi
2:00 AM63 °FClear.12 mph83%30.01 "Hg10 mi
Weather by CustomWeather, © 2015

See weather overviewHow to use our weather pages